Temp
25 26 30 32 33 36 36 35 36 35 35 35 35 35 34 35 33 31 31 31 31 29 24 23 24 24 23 22 22 22 22 22 21 21 21 21 21 21 21 21 21 21 21 21 20 20 20 19 19
27 30 31 34 33 36 35 36 36 35 35 35 34 34 35 34 35 33 31 29 29 28 24 22 23 24 24 23 22 22 22 22 21 21 21 21 20 21 21 21 21 20 20 20 20 19 19 19 19
26 30 33 36 37 36 35 36 35 35 35 35 35 35 35 34 34 33 30 29 29 27 24 22 23 24 24 23 22 22 22 21 21 21 21 21 21 21 21 20 20 20 19 19 19 19 19 19 19
30 33 35 35 36 35 36 36 36 35 35 35 35 35 35 32 33 32 29 28 28 27 25 22 23 23 23 23 22 22 22 22 22 22 21 21 21 21 20 20 20 20 18 18 18 19 19 19 19
31 34 35 36 35 35 36 36 36 36 35 35 35 35 34 32 31 30 28 28 28 27 26 23 23 23 23 23 23 22 22 22 22 22 21 21 21 21 21 20 20 20 19 19 19 20 19 19 19
33 36 35 35 35 35 36 36 36 36 36 36 35 35 34 31 31 29 28 28 27 26 25 22 22 23 23 23 23 23 23 22 22 22 21 21 21 21 21 21 21 20 19 19 19 19 19 19 19
32 35 35 36 35 35 35 36 35 36 36 36 36 35 34 33 31 29 29 28 27 26 25 22 20 22 23 23 23 23 23 22 22 21 21 21 21 21 21 21 20 20 19 19 19 19 19 19 19
31 35 35 36 35 35 35 36 36 36 36 37 37 35 34 34 30 30 29 28 27 26 24 22 21 21 20 20 22 22 22 22 21 21 21 21 21 21 21 21 20 20 20 19 19 19 19 19 19
34 33 35 35 35 35 35 35 36 36 36 36 36 36 35 32 30 30 30 29 27 26 25 24 23 22 22 22 21 21 21 21 21 20 20 20 19 20 20 20 19 20 20 20 19 19 19 19 19
33 34 35 35 35 34 35 35 36 36 36 36 36 36 34 31 31 31 31 30 28 27 26 25 24 24 23 23 23 20 20 19 19 19 19 19 21 21 22 21 20 19 19 19 19 19 19 19 19
34 33 35 34 34 34 34 35 36 36 36 37 36 37 35 33 32 33 32 32 30 28 27 27 25 24 24 24 24 23 22 21 21 21 20 20 22 22 21 22 20 19 19 18 19 18 18 19 21
31 33 34 34 34 33 34 35 34 35 36 37 37 36 36 34 34 34 34 33 32 30 29 27 27 25 24 25 25 25 24 23 22 22 21 21 21 22 22 22 22 20 21 20 21 21 21 21 22
31 32 33 33 33 33 34 34 34 35 36 37 37 36 36 35 35 34 34 34 34 32 30 28 27 25 24 24 25 25 25 24 24 23 22 21 22 22 22 22 23 23 23 23 22 22 23 22 21
32 32 32 33 33 33 33 34 34 35 36 36 36 36 37 36 36 36 35 34 34 33 31 29 28 26 24 24 24 25 25 25 24 24 23 21 22 23 22 22 23 23 23 23 23 23 23 23 22
31 31 33 34 34 33 33 32 33 35 36 35 36 36 36 37 37 37 36 35 34 34 33 29 27 26 24 23 23 24 25 24 25 24 24 23 21 22 22 22 22 23 23 23 23 23 23 23 23
31 32 32 34 33 33 32 32 35 35 35 35 35 36 36 37 37 37 36 36 35 34 33 31 27 26 24 23 23 23 24 24 24 24 24 23 22 21 22 22 23 23 23 23 22 22 23 23 23
33 32 33 34 34 32 32 32 34 35 34 34 35 35 36 36 37 36 36 36 36 35 33 31 28 26 25 23 23 23 24 24 24 24 24 24 22 21 21 22 22 23 22 22 23 23 23 23 22
32 33 33 33 34 32 32 32 34 35 35 35 35 35 35 36 36 37 36 36 36 35 33 32 29 26 25 24 23 24 24 24 24 24 24 24 23 22 21 21 22 22 22 22 22 22 23 23 22
32 32 32 33 34 32 32 32 33 35 35 36 35 36 35 35 36 36 36 35 35 34 33 32 30 27 25 24 24 24 25 25 25 24 24 24 23 23 21 21 22 22 22 22 22 22 22 22 22
31 31 31 33 33 31 32 32 34 35 35 35 35 36 35 35 36 36 34 35 34 34 33 32 30 28 26 25 25 25 25 26 25 25 25 24 24 23 22 21 22 22 22 22 22 22 22 21 21
30 30 31 31 33 33 32 32 34 36 34 35 35 35 34 34 34 34 34 33 33 32 32 31 31 29 27 26 26 25 25 26 26 26 26 24 23 23 22 22 21 22 22 22 21 21 21 21 21
29 32 31 31 30 30 33 31 34 35 34 34 34 34 34 34 34 33 33 31 30 30 30 30 31 30 28 27 26 26 26 26 26 26 27 26 24 23 22 21 21 21 22 22 22 21 21 20 21
30 31 31 30 30 30 31 31 33 35 35 35 34 34 34 33 33 32 32 31 29 28 27 28 29 30 29 28 26 25 25 26 26 26 27 26 25 24 22 21 21 21 21 21 21 21 20 20 20
31 30 29 29 29 28 31 31 32 34 35 35 35 33 33 33 32 32 31 31 29 27 26 26 27 28 28 27 26 24 24 25 25 25 25 25 25 25 23 22 21 20 20 20 20 20 19 18 18
30 28 26 27 27 28 32 32 33 35 35 36 35 33 33 33 33 33 32 31 30 29 27 27 27 26 26 26 25 24 24 23 23 24 24 24 25 25 24 22 20 19 19 18 18 18 18 18 17
28 29 27 26 28 30 33 31 32 35 35 35 35 34 33 32 32 32 31 31 30 29 27 27 28 28 27 25 25 24 24 24 24 24 24 24 24 24 24 22 21 19 18 18 17 17 17 17 17
27 28 29 27 29 29 30 32 33 34 33 34 34 32 32 32 32 31 31 30 29 28 26 25 26 27 27 26 26 25 24 24 24 24 23 23 23 23 23 23 20 19 18 18 17 17 17 17 17
28 29 27 27 25 26 29 30 31 33 34 33 32 32 32 32 32 31 30 28 27 26 25 24 24 24 24 23 23 23 23 23 23 23 22 22 22 22 22 22 21 20 18 18 17 17 17 17 17
28 27 27 28 28 27 27 29 33 34 34 33 32 32 32 31 31 30 28 27 26 25 24 23 22 22 21 21 21 21 21 20 20 21 21 21 21 20 20 20 20 19 19 18 18 17 17 17 17
27 27 27 25 25 28 28 28 33 33 33 33 33 32 31 30 29 28 28 26 24 24 23 22 21 21 21 20 20 19 19 20 20 20 20 20 19 19 19 18 19 19 18 17 18 17 17 16 16
Height
781 779 777 771 776 749 755 761 742 753 752 747 748 751 759 751 764 785 769 768 772 779 786 789 793 796 800 804 807 810 813 814 816 818 819 821 821 822 823 824 825 826 827 827 828 829 829 830 831
782 779 774 760 773 757 760 749 751 749 751 749 752 752 753 760 753 761 767 772 774 781 787 791 793 796 801 805 808 811 814 815 817 818 820 822 823 824 825 826 827 828 829 829 830 831 832 832 832
782 777 767 752 742 753 761 749 751 750 750 752 751 749 753 759 758 760 767 771 775 782 788 792 794 798 802 806 809 812 814 816 817 819 820 821 823 825 826 827 828 829 830 831 832 832 832 833 833
779 769 759 763 754 755 751 748 746 752 750 747 747 754 749 759 758 763 768 772 777 784 790 791 795 799 802 806 809 812 814 816 818 819 820 822 823 824 826 827 828 829 830 831 832 833 833 834 834
777 762 763 754 758 756 748 747 746 749 749 750 748 755 752 760 763 766 770 774 778 785 790 792 796 799 802 805 808 811 814 816 817 819 820 822 823 824 826 827 828 829 830 831 832 833 833 834 834
772 755 763 764 761 756 751 748 748 748 744 747 752 752 754 760 763 768 771 774 779 784 789 794 796 798 802 805 808 810 813 815 817 819 820 822 823 824 825 826 827 829 830 831 832 833 834 834 834
776 760 759 754 763 761 756 747 752 749 747 746 743 753 751 757 762 768 772 776 780 785 788 793 796 799 802 805 807 810 813 815 817 818 820 821 822 823 824 825 826 828 829 830 831 832 833 833 833
775 761 762 756 763 762 753 748 747 748 742 737 739 749 754 752 763 766 771 775 780 784 788 791 795 799 802 805 807 810 812 815 817 818 819 820 822 823 824 824 825 826 828 829 830 831 831 831 832
765 777 765 758 763 755 750 756 744 742 744 741 741 740 745 756 761 765 769 772 777 782 786 789 792 795 798 803 805 807 811 814 816 817 819 820 821 822 822 823 825 825 826 827 827 828 829 829 830
771 768 758 749 753 760 752 751 746 747 742 743 743 743 749 756 759 760 764 767 772 776 781 785 789 793 796 799 802 804 807 810 813 816 817 818 820 821 822 822 822 824 825 825 825 826 827 827 828
765 776 754 755 755 758 756 751 740 747 748 736 740 735 744 751 754 755 757 760 766 771 775 779 784 788 792 796 799 802 805 806 808 811 813 814 816 818 819 820 820 821 821 823 822 823 824 825 825
781 764 761 758 754 760 758 747 751 747 740 730 734 737 737 746 747 749 749 752 757 763 769 774 778 783 787 791 794 797 800 803 804 805 807 809 811 812 814 815 816 818 819 819 820 820 821 822 822
775 769 759 757 758 756 751 753 750 745 736 731 732 735 738 739 742 743 744 745 748 755 761 767 772 778 782 785 788 792 794 797 800 802 804 806 806 807 809 810 811 812 814 814 815 816 816 817 818
764 766 764 757 755 752 755 748 742 737 731 732 731 731 729 732 734 735 739 740 742 747 754 761 766 771 778 780 781 783 787 790 794 796 798 800 802 803 805 806 807 808 808 809 810 811 812 812 813
767 774 758 749 746 754 749 752 742 729 727 731 727 726 725 724 724 726 729 733 738 741 747 755 761 765 769 774 778 781 783 785 787 790 793 795 798 799 801 802 803 803 804 805 806 807 807 807 807
771 764 772 739 746 745 756 759 725 723 728 729 724 720 719 718 720 720 722 724 728 735 740 748 755 760 763 767 771 774 777 780 782 783 786 788 791 794 796 797 798 799 800 801 802 802 803 802 802
760 773 759 750 740 752 754 754 732 722 726 726 722 719 717 713 713 715 717 718 719 724 733 741 749 753 758 763 767 769 771 773 776 779 780 781 784 787 790 791 792 794 795 796 796 797 797 796 797
763 755 752 757 743 747 752 750 734 721 719 716 714 713 713 711 708 707 708 711 713 719 726 734 742 748 754 759 762 764 766 767 769 771 773 775 776 778 781 783 784 787 788 788 789 789 790 790 791
757 758 761 748 738 747 747 743 732 719 713 709 708 706 707 706 702 703 705 707 712 716 722 727 735 741 749 752 754 757 757 761 762 763 765 767 769 771 773 775 778 779 779 781 782 784 784 784 786
760 765 760 746 737 749 744 739 722 716 709 707 705 702 703 701 699 700 706 707 710 714 718 723 728 736 742 746 748 749 752 753 755 757 758 761 762 764 766 767 768 770 772 773 774 776 777 778 781
762 765 760 756 740 736 740 739 720 705 708 705 703 701 702 704 702 703 705 707 710 712 715 719 723 728 734 738 743 746 748 748 748 748 750 752 755 757 758 759 760 761 763 763 764 766 767 768 771
765 746 748 752 758 764 726 753 718 708 709 708 704 703 702 702 703 705 707 710 712 712 713 716 718 723 728 733 736 738 740 740 741 742 743 744 746 749 751 752 753 753 754 753 754 756 757 761 760
754 742 746 750 755 753 743 748 725 705 707 704 703 702 701 704 704 706 709 709 711 712 713 714 717 719 724 728 732 734 734 736 737 737 737 738 739 740 741 743 744 746 746 745 746 747 749 751 753
738 748 753 754 753 767 740 740 726 710 701 695 695 701 702 703 706 706 708 711 711 714 715 717 717 718 722 726 728 731 731 732 732 733 733 733 733 734 735 735 737 739 740 740 741 742 742 743 745
741 756 777 775 767 760 721 724 711 690 688 685 690 700 700 701 702 704 705 710 713 715 717 718 720 722 723 724 726 727 728 729 728 728 728 728 727 727 728 729 730 731 733 734 735 736 736 736 737
747 745 762 769 759 739 702 723 713 687 684 686 681 693 697 699 702 705 706 708 712 715 719 718 719 719 722 723 724 725 726 725 724 723 723 722 722 722 722 720 722 724 725 727 728 729 728 729 729
742 743 728 749 739 743 722 705 691 687 693 688 690 696 698 698 700 704 707 710 713 715 718 719 718 719 720 721 721 721 722 723 721 720 720 719 718 717 716 716 716 716 717 718 720 720 720 721 721
723 723 744 744 766 762 731 721 712 694 684 690 695 697 697 695 699 703 708 712 714 716 718 719 719 719 720 721 721 720 720 719 719 718 717 716 715 713 712 712 712 711 710 712 713 712 713 714 715
717 728 730 723 726 741 744 719 680 679 671 678 685 688 693 697 699 705 710 712 714 716 718 719 720 719 719 720 720 719 719 718 716 716 714 713 711 709 708 708 708 707 707 707 707 707 708 708 707
712 715 718 735 736 717 717 719 671 672 674 672 673 682 691 699 700 704 708 713 716 717 719 722 723 723 723 722 721 720 719 718 716 714 713 711 709 706 705 704 703 702 702 703 703 704 704 704 705
Wind_Speed
7 7 8 10 8 9 5 8 3 9 9 8 5 8 10 5 11 5 4 9 13 22 22 24 23 21 20 22 21 20 19 19 18 17 17 15 15 13 12 11 10 9 10 11 11 11 12 12 12
10 8 11 8 8 6 10 4 6 11 9 5 3 4 5 9 9 9 7 6 18 23 22 21 23 22 20 20 22 21 21 19 19 18 17 16 14 13 11 10 10 9 9 10 10 10 10 10 9
9 10 10 7 11 10 10 6 8 10 6 3 0 2 4 13 8 3 4 12 22 23 23 22 24 23 21 20 22 22 22 20 19 18 18 16 14 13 11 10 9 9 9 9 9 10 9 8 7
8 7 7 10 6 9 10 8 5 9 5 2 4 3 7 6 2 2 9 17 23 23 23 23 25 24 22 22 23 23 22 21 20 19 18 16 15 13 12 10 10 9 9 9 9 8 8 7 6
12 8 13 10 8 5 5 6 1 6 5 7 4 10 6 6 6 9 15 20 24 22 22 23 26 25 23 23 23 23 22 21 20 19 18 17 15 13 12 11 10 10 10 9 9 8 8 8 7
8 6 14 8 8 4 3 4 2 3 2 9 5 2 7 11 9 13 16 20 21 23 21 21 28 26 24 23 23 23 22 21 20 19 18 16 14 13 13 12 11 11 10 9 9 8 9 8 8
14 10 15 7 7 7 3 4 3 2 4 6 3 3 9 10 11 15 15 17 19 21 21 21 23 26 25 24 23 22 21 21 20 19 17 16 15 14 13 13 12 12 11 10 10 10 9 9 9
7 9 9 5 6 10 3 3 2 8 4 6 2 3 10 14 14 15 16 17 19 21 21 22 23 22 21 21 24 22 21 21 20 19 18 17 15 15 14 14 14 13 12 12 11 11 11 11 10
12 10 9 6 5 5 3 5 6 3 9 6 5 4 12 14 17 16 16 17 20 21 22 23 25 25 23 21 21 23 21 21 20 19 18 17 14 15 15 15 14 14 14 14 13 13 13 13 12
9 10 8 11 7 8 6 6 4 7 14 10 9 5 7 14 16 17 17 18 22 23 24 24 24 24 24 23 21 22 20 20 19 18 17 17 15 15 15 15 18 17 16 15 15 15 15 15 12
8 13 10 6 4 8 15 10 5 10 12 9 5 9 13 15 16 16 17 18 22 23 24 26 26 26 25 24 22 20 22 21 21 22 21 19 17 16 16 15 16 17 19 15 16 15 16 15 13
9 14 11 13 9 13 14 14 13 16 14 15 3 4 10 13 14 17 18 19 22 24 25 26 27 27 26 24 24 22 22 23 23 24 25 22 22 19 18 18 16 16 17 17 17 15 15 15 16
12 13 13 11 12 14 16 18 19 19 17 15 12 8 11 13 15 19 20 20 21 24 26 27 27 28 28 28 24 24 23 24 23 22 24 24 23 21 20 20 19 18 17 18 17 17 16 16 17
12 11 15 16 16 15 18 21 19 21 17 20 20 19 17 16 16 18 20 22 22 24 26 27 29 29 28 28 28 25 25 24 24 23 24 27 25 22 21 21 21 20 20 19 18 18 18 18 18
10 15 16 17 12 9 7 18 23 22 18 21 18 18 19 20 20 20 21 24 24 25 25 28 28 29 30 29 28 26 24 25 24 25 24 25 27 24 23 22 22 21 21 20 20 19 19 19 18
16 15 13 7 4 6 8 15 4 4 9 16 18 18 18 18 20 22 23 24 26 26 26 26 27 29 31 30 29 28 27 25 26 25 25 28 27 27 25 24 23 22 21 21 21 21 21 22 21
15 14 12 8 5 5 9 13 14 15 14 16 16 15 16 18 17 23 23 25 27 26 25 27 28 30 32 29 27 27 27 28 26 25 26 26 28 28 28 26 25 23 23 23 22 22 23 22 22
16 12 9 9 5 11 13 18 19 17 17 18 17 17 16 17 17 20 17 19 22 22 24 27 28 30 28 26 27 25 26 28 27 27 27 27 28 29 30 29 27 25 25 25 25 25 24 24 23
19 18 18 16 10 15 17 19 16 17 18 14 14 15 15 18 18 22 12 15 19 21 22 27 27 28 27 28 27 27 27 27 28 28 28 28 29 29 31 30 28 29 28 28 25 26 25 26 22
17 20 20 18 13 8 16 20 19 20 16 11 10 8 9 9 9 8 9 12 15 19 21 23 27 27 28 27 28 27 26 26 27 26 28 30 29 31 30 32 30 29 30 29 28 28 25 26 26
20 20 20 20 17 14 20 22 25 15 8 8 6 5 3 4 4 3 6 8 12 18 22 24 25 26 28 27 24 23 23 23 24 27 27 29 30 31 32 31 32 30 30 30 32 31 30 25 25
21 18 20 19 15 13 4 13 14 10 12 11 8 7 5 5 5 5 3 1 5 12 16 20 21 24 25 26 24 23 24 24 26 24 25 26 28 31 32 33 33 33 30 32 31 31 32 30 27
21 16 12 13 16 16 20 12 16 21 12 14 10 10 9 7 6 8 8 10 9 4 2 9 15 19 19 20 23 22 23 22 22 23 23 24 25 29 32 34 34 34 33 33 31 30 30 30 26
23 13 13 16 15 16 21 17 18 16 16 15 13 12 11 10 8 9 9 10 12 12 10 5 6 9 12 16 18 22 20 19 19 19 20 21 22 24 28 31 33 32 32 32 31 30 29 30 30
15 14 10 12 14 17 19 20 18 16 10 10 16 13 13 10 9 9 8 9 10 11 10 8 5 4 6 10 15 17 19 20 21 20 20 21 21 22 24 27 29 33 33 32 32 30 31 32 32
19 21 14 22 16 17 20 13 12 14 15 10 12 14 14 12 10 8 8 8 9 10 9 7 4 2 2 5 8 12 15 17 18 19 21 21 20 22 23 26 32 36 35 34 32 31 32 30 32
26 20 27 22 23 18 21 21 12 11 10 11 13 13 16 14 12 11 9 8 8 7 7 7 6 6 6 7 9 11 13 16 19 20 19 20 20 23 22 18 26 28 31 32 31 31 29 30 30
29 23 18 15 21 25 22 23 17 23 21 15 17 17 16 14 12 8 7 7 8 8 8 9 10 9 8 9 9 10 12 14 17 19 20 21 22 21 20 18 20 21 27 28 29 31 29 29 28
18 20 25 20 15 19 18 18 20 15 10 14 20 18 15 12 9 7 6 7 9 10 13 15 16 16 16 14 13 13 13 14 14 16 19 20 20 19 17 21 21 23 23 23 25 26 25 27 28
24 22 27 17 26 16 19 19 20 16 11 11 15 18 13 11 9 7 6 8 10 11 14 15 15 17 17 16 15 15 14 14 14 15 17 18 21 21 21 21 22 20 21 22 24 23 24 23 24
Wind_Direction
266 273 269 254 244 230 112 89 96 120 116 53 46 1 12 3 6 70 146 151 162 156 157 162 163 161 165 177 182 180 176 170 167 163 162 160 157 154 153 152 147 142 140 139 136 134 129 124 121
277 278 243 271 258 224 90 160 112 69 71 90 114 222 30 63 44 104 159 166 171 159 162 163 167 162 166 173 181 181 181 177 173 169 168 167 166 163 163 159 155 151 149 146 143 139 141 139 134
280 267 271 250 262 60 98 81 90 95 104 134 13 58 359 36 73 37 84 158 158 161 165 171 169 165 166 172 179 182 184 182 178 176 173 173 173 172 170 168 164 161 157 156 154 156 160 158 154
275 217 240 258 55 39 48 86 83 127 139 157 36 109 141 54 35 56 145 160 163 163 167 181 172 169 170 172 178 184 187 186 183 181 180 179 179 179 178 178 175 172 168 168 172 175 175 179 184
240 265 261 247 70 107 90 42 249 155 149 112 305 74 85 94 94 124 141 154 159 165 168 180 176 175 176 177 183 187 191 190 188 186 185 185 186 186 187 186 186 187 184 185 192 192 193 201 209
259 254 258 190 119 120 144 14 298 208 331 121 232 26 78 117 133 138 148 157 164 166 168 176 180 181 183 184 189 191 193 194 192 190 189 190 192 194 194 194 196 199 198 201 204 206 211 217 225
255 270 284 28 112 166 54 318 263 346 276 190 92 275 107 144 138 151 154 163 167 172 174 177 183 187 190 192 194 196 198 199 197 195 196 197 199 201 202 203 205 204 208 211 212 215 222 228 235
295 285 274 249 181 117 66 280 313 246 85 58 174 328 123 128 155 164 164 166 173 180 183 181 183 189 194 200 202 203 202 204 204 203 202 201 203 206 208 210 212 211 213 217 218 220 226 233 238
272 271 253 236 230 94 79 292 146 289 273 217 150 286 85 134 157 165 174 176 180 188 192 191 189 191 193 199 209 207 208 210 209 209 209 206 202 212 214 214 223 223 217 219 219 221 228 235 241
260 257 286 26 12 313 264 263 319 256 206 213 193 138 150 158 173 177 184 187 189 192 196 197 198 197 197 201 204 205 206 207 208 209 210 205 210 214 213 218 219 226 225 224 225 229 231 234 233
250 260 2 308 310 316 300 293 280 269 269 261 225 205 175 182 195 201 198 195 201 198 199 200 200 200 201 206 206 207 207 207 209 209 208 211 214 217 216 216 221 224 226 225 232 233 233 234 235
269 260 282 284 293 291 281 290 290 286 285 306 279 290 179 204 211 212 214 208 195 202 203 203 201 201 204 207 209 211 211 210 212 212 208 209 213 214 215 217 219 218 221 222 225 229 231 234 237
256 271 285 289 274 269 278 267 270 266 268 277 271 228 245 209 220 225 226 219 206 201 204 205 205 201 204 208 210 215 213 214 218 217 215 215 216 215 215 219 222 222 223 221 225 231 234 237 241
310 291 285 280 273 270 273 271 257 253 253 250 250 252 245 230 228 228 220 231 217 208 203 204 205 201 207 208 211 208 215 217 218 221 220 215 220 220 220 221 222 227 228 228 229 231 234 238 243
280 284 279 264 252 267 287 269 242 247 245 255 255 254 250 260 249 230 234 219 232 220 206 201 205 203 205 209 212 214 214 216 218 221 220 219 221 225 224 226 226 229 230 232 233 234 237 245 243
259 264 278 85 209 223 244 282 303 210 242 250 250 255 251 251 257 254 253 237 225 225 212 201 204 207 206 208 209 212 216 217 221 221 222 220 221 224 224 230 231 232 232 233 233 236 238 241 241
239 257 248 288 157 274 250 289 307 299 289 273 261 260 262 260 248 249 253 259 235 219 214 205 202 208 208 210 212 214 218 219 223 225 224 222 221 223 224 228 232 231 232 234 236 236 238 244 237
260 245 237 251 223 207 261 272 281 275 268 267 262 253 257 265 263 259 261 254 230 228 212 212 205 208 208 210 213 219 221 222 223 225 226 224 221 221 223 228 229 227 230 233 232 236 239 240 244
279 285 276 275 278 283 279 280 277 283 286 283 266 253 250 251 250 255 262 234 222 222 220 212 209 205 204 210 212 216 220 222 225 227 228 227 224 222 221 226 229 227 229 231 233 235 236 244 239
257 266 267 273 264 284 273 276 281 281 277 277 282 271 268 263 237 221 247 238 217 227 224 223 214 211 211 216 218 221 221 227 228 230 230 229 227 225 224 223 227 227 227 230 231 232 233 237 238
253 257 267 274 289 275 276 271 270 245 232 246 236 254 258 257 260 239 248 236 236 235 233 227 222 216 215 218 221 226 232 235 231 228 230 229 228 228 227 228 226 229 227 228 225 226 227 231 228
252 251 254 261 266 269 272 278 284 223 210 208 203 216 199 154 136 111 94 70 261 257 244 234 227 218 220 215 223 226 230 232 235 236 235 233 228 228 231 230 231 230 230 230 229 225 225 225 229
257 281 274 269 267 271 262 253 260 262 218 217 197 192 175 152 128 103 84 77 73 74 191 219 226 225 221 218 222 230 239 243 248 247 243 238 235 231 228 230 231 232 231 234 231 227 224 228 231
259 263 249 259 257 255 254 251 262 254 217 232 173 188 172 164 148 122 105 89 78 72 78 108 160 191 212 219 224 231 246 248 249 254 255 254 247 242 238 233 233 234 235 238 237 232 226 226 230
249 215 240 237 233 249 252 247 244 243 280 242 181 193 181 173 161 145 126 100 81 80 79 81 100 155 201 216 225 231 239 246 254 256 258 259 253 248 245 241 234 233 238 238 238 235 232 230 232
215 224 230 240 253 258 248 235 253 264 262 250 178 189 180 171 156 151 131 114 98 81 61 67 65 83 194 234 249 252 255 255 258 258 254 258 257 257 257 234 241 244 239 239 239 239 240 237 232
248 223 240 256 271 278 277 275 240 239 232 239 208 188 192 176 167 158 131 103 90 79 68 49 32 13 355 327 300 282 277 275 273 271 268 266 265 263 264 258 234 234 241 243 240 239 235 239 240
221 247 234 238 252 257 259 261 263 257 223 213 214 199 200 179 173 153 121 107 85 73 64 47 35 32 10 352 338 322 311 297 288 283 274 269 269 271 265 265 252 247 240 243 243 239 237 235 239
214 225 251 246 242 241 253 255 257 286 220 228 199 204 203 193 170 149 116 86 68 59 53 41 35 31 26 17 7 359 348 334 318 302 294 286 285 286 274 261 258 252 247 241 238 241 244 238 235
287 255 224 239 240 244 243 253 274 296 291 253 207 188 188 190 168 140 123 107 84 67 59 50 46 45 40 37 35 26 13 0 349 336 329 316 295 280 275 272 269 271 260 249 250 253 254 250 247